Port Aransas, TX

12:46 AM CDT on August 19, 2017 (GMT -0500)
Port Aransas

Weather History for KRAS - February, 2014

Change the Weather History Date:

Friday, February 7, 2014

  Actual Average (KNGP) Record (KNGP)
Temperature  
Mean Temperature 35 °F -  
Max Temperature 37 °F 64 °F 80 °F (2017)
Min Temperature 33 °F 51 °F 34 °F (2014)
Degree Days  
Heating Degree Days 30    
Moisture  
Dew Point 33 °F    
Average Humidity 90    
Maximum Humidity 100    
Minimum Humidity 68    
Precipitation  
Precipitation 0.00 in - - ()
Sea Level Pressure  
Sea Level Pressure 30.25 in    
Wind  
Wind Speed 14 mph (North)    
Max Wind Speed 18 mph    
Max Gust Speed 22 mph    
Visibility 8 miles    
Events      
Averages and records for this station are not official NWS values.
T = Trace of Precipitation, MM = Missing Value Source: NWS Daily Summary

Daily Weather History Graph

Daily Weather History Graph

Search for Another Location

Airport or City:

Trip Planner

Search our weather history database for the weather conditions in past years. The results will help you decide how hot, cold, wet, or windy it might be!

Date:

Astronomy

Feb. 07, 2014 Rise Set
Actual Time 7:11 AM CST 6:13 PM CST
Civil Twilight 6:47 AM CST 6:38 PM CST
Nautical Twilight 6:19 AM CST 7:05 PM CST
Astronomical Twilight 5:52 AM CST 7:33 PM CST
Moon 12:31 PM CST (2/7) 1:24 AM CST (2/7)
Length of Visible Light 11h 50m
Length of Day
11h 02m
First Quarter, 59% of the Moon is Illuminated
Feb 7
First Quarter
Feb 14
Full
Feb 22
Last Quarter
Mar 1
New
Mar 8
First Quarter

Hourly Weather History & Observations

Time (CST) Temp. Windchill Dew Point Humidity Pressure Visibility Wind Dir Wind Speed Gust Speed Precip Events Conditions
12:15 AM 36.7 °F 28.0 °F 27.0 °F 68% 30.34 in 10.0 mi North 13.8 mph 17.3 mph N/A   Overcast
12:35 AM 36.7 °F 28.4 °F 27.3 °F 69% 30.33 in 10.0 mi North 12.7 mph - N/A   Overcast
12:55 AM 36.7 °F 27.6 °F 27.3 °F 69% 30.32 in 10.0 mi NNE 15.0 mph - N/A   Overcast
1:15 AM 36.5 °F 27.8 °F 27.7 °F 70% 30.31 in 10.0 mi NNE 13.8 mph - N/A   Overcast
1:35 AM 36.5 °F 27.4 °F 27.1 °F 69% 30.30 in 10.0 mi NE 15.0 mph - N/A   Overcast
1:55 AM 36.3 °F 28.0 °F 27.5 °F 70% 30.30 in 10.0 mi NNE 12.7 mph 19.6 mph N/A   Overcast
2:15 AM 36.5 °F 28.2 °F 28.4 °F 72% 30.30 in 10.0 mi NNE 12.7 mph 18.4 mph N/A   Overcast
2:35 AM 36.1 °F 27.3 °F 28.2 °F 73% 30.30 in 10.0 mi North 13.8 mph - N/A   Overcast
2:55 AM 36.1 °F 27.7 °F 28.4 °F 73% 30.30 in 10.0 mi NNE 12.7 mph - N/A   Overcast
3:15 AM 36.1 °F 27.3 °F 29.5 °F 77% 30.28 in 10.0 mi North 13.8 mph - N/A   Overcast
3:35 AM 35.6 °F 26.6 °F 29.5 °F 78% 30.28 in 10.0 mi North 13.8 mph 18.4 mph N/A   Overcast
3:55 AM 35.1 °F 25.2 °F 30.0 °F 82% 30.27 in 10.0 mi North 16.1 mph - N/A   Overcast
4:15 AM 34.9 °F 26.6 °F 30.2 °F 83% 30.28 in 7.0 mi North 11.5 mph - N/A   Overcast
4:35 AM 34.5 °F 26.7 °F 30.9 °F 87% 30.28 in 7.0 mi North 10.4 mph - N/A   Overcast
4:55 AM 34.7 °F 25.9 °F 30.2 °F 84% 30.27 in 10.0 mi North 12.7 mph - N/A   Overcast
5:15 AM 34.7 °F 25.1 °F 29.8 °F 82% 30.25 in 10.0 mi North 15.0 mph - N/A   Overcast
5:35 AM 34.9 °F 24.9 °F 30.6 °F 84% 30.24 in 10.0 mi North 16.1 mph - N/A   Overcast
5:55 AM 34.7 °F 25.9 °F 31.1 °F 87% 30.26 in 10.0 mi North 12.7 mph - N/A   Overcast
6:15 AM 34.7 °F 25.5 °F 31.5 °F 88% 30.26 in 10.0 mi North 13.8 mph - N/A   Overcast
6:35 AM 34.2 °F 24.0 °F 30.9 °F 88% 30.26 in 10.0 mi North 16.1 mph 20.7 mph N/A   Overcast
6:55 AM 33.8 °F 24.8 °F 30.9 °F 89% 30.26 in 7.0 mi North 12.7 mph - N/A   Overcast
7:15 AM 33.4 °F 23.5 °F 31.8 °F 94% 30.27 in 7.0 mi North 15.0 mph - N/A   Overcast
7:35 AM 33.4 °F 23.9 °F 32.0 °F 94% 30.28 in 7.0 mi North 13.8 mph - N/A   Overcast
7:55 AM 33.4 °F 23.5 °F 32.0 °F 94% 30.28 in 7.0 mi North 15.0 mph - N/A   Overcast
8:15 AM 33.3 °F 23.7 °F 32.0 °F 95% 30.26 in 7.0 mi North 13.8 mph 18.4 mph N/A   Overcast
8:35 AM 34.2 °F 25.2 °F 32.9 °F 95% 30.27 in 7.0 mi North 12.7 mph - N/A   Overcast
8:55 AM 34.2 °F 24.8 °F 32.5 °F 94% 30.26 in 7.0 mi NNE 13.8 mph - N/A   Overcast
9:15 AM 34.7 °F 24.7 °F 32.9 °F 93% 30.27 in 7.0 mi North 16.1 mph - N/A   Overcast
9:35 AM 34.9 °F 25.3 °F 32.2 °F 90% 30.28 in 10.0 mi North 15.0 mph 20.7 mph N/A   Overcast
9:55 AM 34.5 °F 24.5 °F 32.0 °F 90% 30.29 in 10.0 mi North 16.1 mph 20.7 mph N/A   Overcast
10:15 AM 34.7 °F 24.7 °F 32.0 °F 90% 30.29 in 10.0 mi North 16.1 mph - N/A   Overcast
10:35 AM 35.1 °F 25.2 °F 32.2 °F 89% 30.28 in 10.0 mi North 16.1 mph - N/A   Overcast
10:55 AM 35.6 °F 25.9 °F 32.7 °F 89% 30.28 in 10.0 mi North 16.1 mph 19.6 mph N/A   Overcast
11:15 AM 35.8 °F 26.5 °F 33.1 °F 90% 30.27 in 10.0 mi NNE 15.0 mph - N/A   Overcast
11:35 AM 36.0 °F 26.3 °F 33.3 °F 90% 30.27 in 7.0 mi North 16.1 mph - N/A   Overcast
11:55 AM 35.8 °F 26.1 °F 33.3 °F 91% 30.27 in 7.0 mi North 16.1 mph 21.9 mph N/A   Overcast
12:15 PM 36.0 °F 26.7 °F 34.0 °F 93% 30.25 in 5.0 mi North 15.0 mph 18.4 mph N/A   Overcast
12:35 PM 35.6 °F 25.9 °F 33.8 °F 93% 30.25 in 5.0 mi North 16.1 mph - N/A   Overcast
12:55 PM 35.8 °F 26.1 °F 34.0 °F 93% 30.24 in 5.0 mi North 16.1 mph - N/A   Overcast
1:15 PM 35.6 °F 25.9 °F 34.2 °F 94% 30.23 in 5.0 mi North 16.1 mph 19.6 mph N/A   Overcast
1:35 PM 35.6 °F 25.2 °F 34.2 °F 94% 30.22 in 5.0 mi North 18.4 mph - N/A   Overcast
1:55 PM 35.8 °F 25.7 °F 34.3 °F 94% 30.21 in 5.0 mi North 17.3 mph - N/A   Overcast
2:15 PM 36.1 °F 26.5 °F 34.7 °F 94% 30.20 in 7.0 mi North 16.1 mph - N/A   Overcast
2:35 PM 36.0 °F 27.5 °F 34.7 °F 95% 30.19 in 5.0 mi North 12.7 mph - N/A   Overcast
2:55 PM 36.0 °F 26.0 °F 34.7 °F 95% 30.19 in 7.0 mi North 17.3 mph - N/A   Overcast
3:15 PM 35.8 °F 25.7 °F 34.5 °F 95% 30.19 in 7.0 mi North 17.3 mph 21.9 mph N/A   Overcast
3:35 PM 35.8 °F 25.4 °F 34.7 °F 96% 30.19 in 7.0 mi North 18.4 mph - N/A   Overcast
3:55 PM 36.0 °F 27.1 °F 35.1 °F 97% 30.19 in 5.0 mi North 13.8 mph 20.7 mph N/A   Overcast
4:15 PM 36.0 °F 27.1 °F 35.6 °F 99% 30.20 in 4.0 mi North 13.8 mph 21.9 mph N/A   Overcast
4:35 PM 35.8 °F 26.5 °F 35.6 °F 99% 30.21 in 2.5 mi North 15.0 mph - N/A   Overcast
4:55 PM 35.8 °F 26.1 °F 35.8 °F 100% 30.21 in 2.5 mi North 16.1 mph 20.7 mph N/A   Overcast
5:15 PM 35.6 °F 26.2 °F 35.6 °F 100% 30.22 in 2.5 mi North 15.0 mph - N/A   Overcast
5:35 PM 35.6 °F 26.2 °F 35.6 °F 100% 30.22 in 3.0 mi North 15.0 mph - N/A   Overcast
5:55 PM 35.6 °F 26.6 °F 35.6 °F 100% 30.23 in 2.5 mi North 13.8 mph - N/A   Overcast
6:15 PM 35.6 °F 25.9 °F 35.6 °F 100% 30.23 in 4.0 mi North 16.1 mph - N/A   Overcast
6:35 PM 35.6 °F 25.9 °F 35.6 °F 100% 30.24 in 5.0 mi North 16.1 mph 20.7 mph N/A   Overcast
6:55 PM 35.6 °F 25.5 °F 35.6 °F 100% 30.24 in 5.0 mi North 17.3 mph 21.9 mph N/A   Overcast
7:15 PM 35.8 °F 26.9 °F 35.8 °F 100% 30.26 in 7.0 mi North 13.8 mph - N/A   Overcast
7:35 PM 35.8 °F 26.1 °F 35.6 °F 99% 30.26 in 5.0 mi North 16.1 mph 21.9 mph N/A   Light Drizzle
7:55 PM 36.0 °F 26.7 °F 35.8 °F 99% 30.25 in 10.0 mi North 15.0 mph - N/A   Overcast
8:15 PM 36.5 °F 27.4 °F 36.0 °F 98% 30.25 in 7.0 mi North 15.0 mph - N/A   Light Drizzle
8:35 PM 36.5 °F 28.2 °F 36.0 °F 98% 30.24 in 10.0 mi North 12.7 mph - N/A   Overcast
8:55 PM 36.7 °F 29.4 °F 36.5 °F 99% 30.23 in 10.0 mi NNE 10.4 mph - N/A   Overcast
9:15 PM 37.4 °F 28.9 °F 36.5 °F 97% 30.22 in 10.0 mi NNE 13.8 mph 18.4 mph N/A   Overcast
9:35 PM 37.4 °F 29.3 °F 36.5 °F 97% 30.23 in 10.0 mi NNE 12.7 mph - N/A   Overcast
9:55 PM 37.4 °F 28.9 °F 36.7 °F 97% 30.22 in 7.0 mi NNE 13.8 mph 19.6 mph N/A   Overcast
10:15 PM 37.8 °F 30.7 °F 36.7 °F 96% 30.23 in 10.0 mi North 10.4 mph - N/A   Overcast
10:35 PM 37.6 °F 29.6 °F 36.9 °F 97% 30.23 in 7.0 mi North 12.7 mph - N/A   Overcast
10:55 PM 37.9 °F 30.5 °F 37.0 °F 97% 30.23 in 7.0 mi North 11.5 mph - N/A   Overcast
11:15 PM 37.8 °F 30.2 °F 37.0 °F 97% 30.23 in 7.0 mi North 11.5 mph - N/A   Overcast
11:35 PM 37.8 °F 30.2 °F 36.9 °F 97% 30.24 in 7.0 mi North 11.5 mph - N/A   Overcast
11:55 PM 37.8 °F 30.2 °F 36.5 °F 95% 30.24 in 10.0 mi North 11.5 mph - N/A   Overcast